Regional Weather Roundup
Issued by NWS

Home | Current Version | Previous Version | Text Only | Print | Product List | Glossary Off
Versions: 1 2 3 4 5 6 7 8 9 10 11 12 13 14 15 16 17 18 19 20 21 22 23 24 25 26 27 28 29 30 31 32 33 34 35 36 37 38 39 40 41 42 43 44 45 46 47 48 49 50

000
ASUS43 KLMK 200910
RWRKY
KENTUCKY REGIONAL WEATHER ROUNDUP
NATIONAL WEATHER SERVICE LOUISVILLE KY
500 AM EDT SUN AUG 20 2017

NOTE "FAIR" INDICATES FEW OR NO CLOUDS BELOW 12,000 FEET
WITH NO SIGNIFICANT WEATHER AND/OR OBSTRUCTIONS TO VISIBILITY.

KYZ001>023-026-027-061>063-070>075-201000-
WESTERN AND SOUTH CENTRAL KENTUCKY

CITY           SKY/WX    TMP DP  RH WIND       PRES   REMARKS
PADUCAH        CLEAR     68  65  90 CALM      29.98S
HENDERSON      PTCLDY    68  67  96 CALM      30.00R
OWENSBORO      PTCLDY    69  68  96 S3        30.01R
HOPKINSVILLE   CLEAR     71  70  98 CALM      30.01R
BOWLING GREEN  CLEAR     70  70 100 CALM      30.02S FOG
GLASGOW        CLEAR    N/A N/A N/A CALM      30.03S HAZE
$$

KYZ024-025-028>034-038-045-046-053-201000-
NORTH CENTRAL KENTUCKY

CITY           SKY/WX    TMP DP  RH WIND       PRES   REMARKS
LOUISVILLE/SDF CLEAR     73  70  90 SE5       30.01S
LOUISVILLE/LOU CLEAR     72  71  97 CALM      30.02S
FORT KNOX      CLEAR     70  70 100 CALM      30.01S FOG
$$

KYZ035>037-039>044-047>052-055>060-089>105-201000-
NORTHEAST KENTUCKY

CITY           SKY/WX    TMP DP  RH WIND       PRES   REMARKS
LEXINGTON      CLEAR     70  65  84 S3        30.06R
COVINGTON      PTCLDY    71  69  93 SE7       30.04R
FRANKFORT      CLEAR     68  65  90 CALM      30.03R
$$

KYZ054-064>069-076>088-106>120-201000-
SOUTHEAST KENTUCKY

CITY           SKY/WX    TMP DP  RH WIND       PRES   REMARKS
JACKSON        CLEAR     68  66  93 CALM      30.09R
LONDON         CLEAR     66  65  96 CALM      30.08R FOG
SOMERSET       CLEAR     63  63 100 CALM      30.08R
MIDDLESBORO    FOG       66  66 100 CALM      30.10R VSB 1/4
MONTICELLO     SUNNY     64  64 100 CALM      30.08R FOG
$$




USA.gov is the U.S. government's official web portal to all federal, state and local government web resources and services.